[[{"header":{"parameterUnit":"m.s-1","parameterCategory":2,"la1":30.2991,"la2":30.254,"lo1":-89.0895,"lo2":-89.0444,"dy":0.0017,"dx":0.0017,"nx":28,"ny":28,"refTime":"2025-09-05T09:00:00:Z","depth":"0","parameterNumber":2,"parameterNumberName":"U-component_of_CURRENTS"},"data":[0,0,0,0,0,0,0,0,0,0,0,0,0,0,0,0,0,0,0,0,0,0,0,0,0,0,0,0,0,0,0,0,0,0,0,0,0,0,0,0,0,0,0,0,0,0,0,0,0,0,0,0,0,0,0,0,0,0,0.1858,0.1859,0,0.1893,0.1893,0.1893,0.1902,0.1902,0.1902,0.1902,0.189,0.189,0.1889,0,0,0,0,0,0,0,0,0,0,0,0,0,0.1788,0.1789,0.1858,0.1859,0.1859,0.1893,0.1893,0.1893,0.1902,0.1902,0.1902,0.1902,0.189,0.189,0.1889,0,0,0,0,0,0,0,0,0,0,0,0,0,0.1818,0.1789,0.1858,0.187,0.1871,0.1893,0.1893,0.1893,0.1902,0.1902,0.1902,0.1902,0.189,0.189,0.1889,0.1886,0,0,0.1888,0.1888,0,0,0,0,0,0,0,0,0.1816,0.182,0.1867,0.1869,0.1871,0.1896,0.1864,0.1889,0.1902,0.1888,0.1902,0.1902,0.1889,0.1889,0.1892,0.1885,0.1885,0.1888,0.1887,0.1887,0.1887,0,0,0,0,0,0,0,0.1814,0.1819,0.1869,0.1868,0.187,0.187,0.1874,0.1869,0.1885,0.1889,0.189,0.1898,0.189,0.1893,0.1892,0.1884,0.1888,0.1887,0.1887,0.1887,0.1882,0.1882,0,0,0,0,0,0,0.1816,0.1817,0.1868,0.1871,0.1846,0.1871,0.1876,0.1886,0.1886,0.1888,0.1898,0.1899,0.1894,0.1893,0.1892,0.1897,0.1887,0.1887,0.1886,0.1882,0.1882,0.1882,0,0,0,0,0,0,0.1814,0.182,0.1867,0.1846,0.1853,0.1873,0.1884,0.1886,0.1894,0.1894,0.1894,0.1904,0.1894,0.1892,0.189,0.1896,0.1887,0.1886,0.1882,0.1882,0.1882,0.1901,0,0,0,0,0,0,0.1812,0.1819,0.1826,0.1847,0.1854,0.1885,0.1884,0.1887,0.19,0.19,0.1899,0.1898,0.1894,0.1891,0.1889,0.1895,0.1886,0.1881,0.1882,0.1882,0.19,0.1901,0.1903,0,0,0,0,0,0.1809,0.1821,0.1826,0.1832,0.1863,0.1885,0.1889,0.1901,0.19,0.1906,0.1902,0.1898,0.1892,0.189,0.1889,0.1894,0.1881,0.1882,0.1882,0.1899,0.1901,0.1903,0,0,0,0,0,0,0.1797,0.1824,0.183,0.185,0.1868,0.1888,0.1897,0.1903,0.1906,0.1905,0.1899,0.1897,0.19,0.1893,0.1891,0.1894,0.1886,0.1887,0.19,0.1902,0.1903,0.1917,0.1885,0,0,0,0,0,0.1797,0.1811,0.1836,0.1852,0.1862,0.1878,0.1888,0.1898,0.1905,0.1907,0.1904,0.19,0.19,0.1897,0.1896,0.1894,0.1988,0.1897,0.1898,0.19,0.191,0.203,0.2045,0.1884,0.1884,0.1884,0,0,0.1798,0.1814,0.1822,0.185,0.1863,0.1882,0.1883,0.1903,0.1914,0.1904,0.191,0.1907,0.1901,0.1903,0.1903,0.1898,0.2014,0.19,0.1902,0.1911,0.2033,0.2049,0.2063,0.1884,0.1884,0.1884,0,0,0.1808,0.1819,0.1835,0.1851,0.1876,0.1886,0.1893,0.1912,0.1916,0.1923,0.192,0.192,0.1915,0.1915,0.1914,0.1922,0.202,0.192,0.1937,0.2054,0.2069,0.2083,0.2315,0.2349,0.1918,0.1918,0.1918,0,0.1808,0.1834,0.1843,0.1863,0.1881,0.1888,0.1912,0.1915,0.193,0.1941,0.1927,0.1943,0.1923,0.1942,0.1935,0.1926,0.2055,0.193,0.206,0.2075,0.209,0.2322,0.236,0.1919,0.1919,0.1919,0.1919,0,0.1832,0.1853,0.1864,0.189,0.1906,0.1928,0.194,0.195,0.1952,0.1961,0.1982,0.1966,0.1988,0.1967,0.1946,0.2022,0.2111,0.2055,0.2063,0.2108,0.235,0.239,0.1921,0.192,0.192,0.192,0,0,0.184,0.1875,0.188,0.1904,0.1926,0.1948,0.1959,0.1988,0.2029,0.2011,0.2083,0.2025,0.2039,0.2038,0.2024,0.2085,0.2301,0.2111,0.2117,0.2358,0.2681,0.266,0.2703,0.2281,0.2285,0.2289,0.2845,0,0.1861,0.1904,0.1913,0.1956,0.1984,0.1994,0.2016,0.2038,0.2065,0.2135,0.2115,0.2177,0.2063,0.2112,0.2142,0.2277,0.2391,0.2163,0.2585,0.2601,0.2587,0.2739,0.2655,0.3132,0.2884,0.289,0.2895,0,0.1887,0.1915,0.1959,0.2011,0.2026,0.2047,0.2114,0.2141,0.2213,0.2252,0.2287,0.2317,0.2409,0.231,0.2558,0.2434,0.2558,0.2642,0.2665,0.2656,0.2648,0.3026,0.3213,0.31,0.2956,0.2951,0.2947,0,0.1904,0.1952,0.199,0.2006,0.2058,0.2082,0.2114,0.2173,0.2244,0.2368,0.2479,0.2545,0.2677,0.2775,0.2899,0.2787,0.3223,0.3102,0.3217,0.3224,0.3236,0.3232,0.3362,0.3296,0.3295,0.3294,0.3292,0,0.1932,0.1968,0.2003,0.203,0.2098,0.2117,0.2217,0.2261,0.2388,0.251,0.2557,0.27,0.2797,0.3013,0.3067,0.3309,0.3382,0.329,0.3357,0.3247,0.3237,0.3197,0.3102,0.3315,0.331,0.3306,0.3302,0,0.1959,0.1975,0.2036,0.2091,0.2111,0.2168,0.2292,0.2381,0.2496,0.2685,0.2757,0.295,0.3209,0.3334,0.36,0.3589,0.3696,0.3831,0.3746,0.3785,0.3672,0.3581,0.37,0.3594,0.4083,0.4086,0.4088,0,0.1981,0.2011,0.2085,0.2134,0.2164,0.225,0.2322,0.2427,0.2533,0.2811,0.292,0.3232,0.3381,0.3808,0.3891,0.4112,0.3873,0.4153,0.3829,0.3713,0.3665,0.3447,0.3329,0.3945,0.3946,0.3946,0.3947,0,0.2051,0.2074,0.2132,0.2202,0.2278,0.2361,0.2462,0.2547,0.2695,0.2857,0.3073,0.3226,0.3624,0.3791,0.4084,0.4153,0.3932,0.4168,0.4066,0.3587,0.3349,0.3262,0.3612,0.3953,0.3952,0.3952,0.3952,0.3951,0.2128,0.2163,0.2223,0.2287,0.2361,0.2411,0.2444,0.2558,0.2687,0.2857,0.3073,0.3273,0.3627,0.3978,0.4057,0.4123,0.3983,0.4,0.394,0.3763,0.3478,0.3869,0.4209,0.421,0.421,0.4211,0.4212,0,0.2198,0.222,0.2298,0.2342,0.238,0.2412,0.2494,0.2497,0.2563,0.2795,0.2943,0.3296,0.355,0.3794,0.4006,0.3918,0.3715,0.3821,0.349,0.3408,0.3838,0.3635,0.3837,0.3837,0.3837,0.3838,0.3838,0.3838,0.2246,0.2295,0.2296,0.233,0.2343,0.2326,0.2326,0.2338,0.2447,0.2602,0.2787,0.3015,0.3391,0.3761,0.38,0.3721,0.3385,0.3308,0.3226,0.3507,0.3516,0.3524,0.3308,0.3439,0.3438,0.2672,0.2667,0.2662]},{"header":{"parameterUnit":"m.s-1","parameterCategory":2,"la1":30.2991,"la2":30.254,"lo1":-89.0895,"lo2":-89.0444,"dy":0.0017,"dx":0.0017,"nx":28,"ny":28,"refTime":"2025-09-05T09:00:00:Z","depth":"0","parameterNumber":3,"parameterNumberName":"V-component_of_CURRENTS"},"data":[0,0,0,0,0,0,0,0,0,0,0,0,0,0,0,0,0,0,0,0,0,0,0,0,0,0,0,0,0,0,0,0,0,0,0,0,0,0,0,0,0,0,0,0,0,0,0,0,0,0,0,0,0,0,0,0,0,0,-0.0141,-0.0142,0,-0.0195,-0.0196,-0.0197,-0.0235,-0.0235,-0.0236,-0.0236,-0.0293,-0.0294,-0.0295,0,0,0,0,0,0,0,0,0,0,0,0,0,-0.0105,-0.0105,-0.0141,-0.0142,-0.0143,-0.0195,-0.0196,-0.0197,-0.0235,-0.0235,-0.0236,-0.0236,-0.0292,-0.0294,-0.0295,0,0,0,0,0,0,0,0,0,0,0,0,0,-0.0135,-0.0105,-0.0141,-0.0168,-0.0171,-0.0195,-0.0196,-0.0197,-0.0235,-0.0235,-0.0236,-0.0236,-0.0292,-0.0294,-0.0295,-0.0297,0,0,-0.0301,-0.0302,0,0,0,0,0,0,0,0,-0.0134,-0.0137,-0.0164,-0.0166,-0.017,-0.0209,-0.0204,-0.0231,-0.0235,-0.021,-0.0236,-0.0236,-0.0265,-0.0269,-0.0278,-0.03,-0.0302,-0.0301,-0.0302,-0.0303,-0.0304,0,0,0,0,0,0,0,-0.0131,-0.0135,-0.0163,-0.0164,-0.0168,-0.0189,-0.0194,-0.0209,-0.0234,-0.0213,-0.0216,-0.0222,-0.0267,-0.0276,-0.0279,-0.0303,-0.0301,-0.0303,-0.0304,-0.0305,-0.0371,-0.0372,0,0,0,0,0,0,-0.0123,-0.0133,-0.0161,-0.0164,-0.0153,-0.0189,-0.0194,-0.0196,-0.0234,-0.024,-0.0221,-0.0223,-0.0272,-0.0277,-0.0281,-0.0314,-0.0303,-0.0305,-0.0306,-0.0371,-0.0371,-0.0372,0,0,0,0,0,0,-0.0122,-0.0125,-0.0159,-0.015,-0.0156,-0.0189,-0.0191,-0.0197,-0.0207,-0.0241,-0.0247,-0.0225,-0.0273,-0.0279,-0.0301,-0.0316,-0.0306,-0.0307,-0.037,-0.0371,-0.0372,-0.0361,0,0,0,0,0,0,-0.012,-0.0124,-0.0118,-0.0149,-0.0156,-0.0169,-0.019,-0.0197,-0.021,-0.0213,-0.0246,-0.0252,-0.0274,-0.0298,-0.0303,-0.0318,-0.0309,-0.0369,-0.037,-0.0371,-0.0361,-0.0362,-0.0363,0,0,0,0,0,-0.0119,-0.0106,-0.0118,-0.0121,-0.0149,-0.0169,-0.0174,-0.02,-0.0209,-0.0211,-0.0239,-0.0251,-0.031,-0.03,-0.0305,-0.0321,-0.0368,-0.037,-0.0371,-0.036,-0.0362,-0.0363,0,0,0,0,0,0,-0.0081,-0.011,-0.0123,-0.0118,-0.0142,-0.0175,-0.0176,-0.0195,-0.0218,-0.022,-0.0253,-0.0261,-0.029,-0.0304,-0.0292,-0.0346,-0.0344,-0.0346,-0.0334,-0.0335,-0.0336,-0.032,-0.031,0,0,0,0,0,-0.0072,-0.0073,-0.0105,-0.0101,-0.011,-0.0142,-0.0152,-0.0172,-0.0197,-0.0208,-0.0235,-0.0266,-0.03,-0.0314,-0.0341,-0.0361,-0.0327,-0.0378,-0.0379,-0.038,-0.0372,-0.0348,-0.0345,-0.0377,-0.0377,-0.0377,0,0,-0.0056,-0.0071,-0.0072,-0.0094,-0.0112,-0.0127,-0.0149,-0.0161,-0.018,-0.021,-0.0236,-0.0267,-0.0306,-0.0338,-0.0352,-0.0351,-0.0343,-0.0382,-0.0382,-0.0373,-0.0349,-0.0345,-0.0342,-0.0378,-0.0378,-0.0378,0,0,-0.0028,-0.0039,-0.0035,-0.0054,-0.0081,-0.0106,-0.0108,-0.0144,-0.0164,-0.0192,-0.0228,-0.0265,-0.0304,-0.0344,-0.0368,-0.0387,-0.0349,-0.0396,-0.0388,-0.0365,-0.0361,-0.0358,-0.0259,-0.0248,-0.0397,-0.0397,-0.0397,0,-0.0007,-0.0009,-0.0036,-0.0042,-0.0053,-0.0095,-0.0098,-0.0129,-0.017,-0.0179,-0.0198,-0.0263,-0.0311,-0.0349,-0.0375,-0.039,-0.0336,-0.0379,-0.0363,-0.036,-0.0356,-0.0257,-0.0244,-0.0396,-0.0396,-0.0396,-0.0396,0,0.0013,0.0011,0.0014,-0.0013,-0.0028,-0.0034,-0.0082,-0.0101,-0.0131,-0.016,-0.0196,-0.0257,-0.0284,-0.0327,-0.0366,-0.0377,-0.0328,-0.0364,-0.0353,-0.0352,-0.0247,-0.0233,-0.0396,-0.0396,-0.0396,-0.0396,0,0,0.0063,0.0035,0.0035,0.0037,-0.0011,-0.0014,-0.005,-0.008,-0.006,-0.0138,-0.0104,-0.0238,-0.0249,-0.0277,-0.0325,-0.0342,-0.0287,-0.0345,-0.0344,-0.0232,-0.0159,-0.0118,-0.0099,-0.031,-0.0309,-0.0308,-0.0076,0,0.0089,0.0097,0.0066,0.0071,0.0074,0.0026,0.0015,-0.002,-0.0038,-0.0013,-0.0102,-0.0082,-0.0234,-0.0204,-0.0267,-0.0244,-0.0258,-0.0341,-0.0191,-0.0184,-0.0138,-0.0086,-0.0172,0.0027,-0.0062,-0.006,-0.0058,0,0.0117,0.0121,0.0137,0.0137,0.0137,0.0136,0.0146,0.0136,0.0129,0.0132,0.0099,0.0079,0.0051,-0.0062,-0.008,-0.0111,-0.0152,-0.0169,-0.016,-0.012,-0.0121,-0.0002,0.0055,-0.02,-0.0037,-0.0039,-0.004,0,0.0178,0.0172,0.0196,0.019,0.0179,0.0192,0.0195,0.0188,0.0255,0.0275,0.0385,0.0281,0.0374,0.0242,0.0177,0.0077,0.0212,0.0082,0.0071,0.0079,0.0034,0.0034,-0.0133,0.0041,0.0041,0.004,0.0039,0,0.022,0.0242,0.0239,0.0255,0.0327,0.0282,0.0387,0.0375,0.0463,0.0617,0.0499,0.0654,0.0458,0.0502,0.0318,0.0301,0.0331,0.0108,0.0133,0.0041,0.0039,-0.0164,-0.0297,0.0049,0.0047,0.0045,0.0043,0,0.0298,0.0276,0.0329,0.0343,0.0365,0.0432,0.0561,0.0673,0.0714,0.0943,0.0996,0.1038,0.1076,0.0893,0.08,0.0596,0.0379,0.0465,0.0413,0.0424,0.0093,-0.0034,-0.0064,-0.0164,0.0479,0.0482,0.0483,0,0.0349,0.0375,0.0436,0.0516,0.054,0.0643,0.0761,0.0807,0.0967,0.1201,0.1368,0.1473,0.1557,0.1456,0.1091,0.0838,0.054,0.0615,0.0331,0.0096,-0.0027,-0.0118,-0.021,0.0312,0.0312,0.0312,0.0312,0,0.0488,0.0505,0.0578,0.0722,0.0852,0.0992,0.1158,0.1309,0.1435,0.1625,0.1899,0.1988,0.1872,0.1594,0.1251,0.1006,0.0412,0.0613,0.0352,-0.0178,-0.0269,-0.0358,0.0196,0.0315,0.0315,0.0314,0.0314,0.0314,0.0652,0.0739,0.0849,0.0987,0.1135,0.1329,0.1461,0.166,0.1908,0.2164,0.2257,0.2382,0.1946,0.143,0.1129,0.044,0.0448,0.0146,0.0029,-0.0026,-0.021,0.0397,0.0535,0.0536,0.0537,0.0537,0.0538,0,0.0868,0.096,0.1114,0.1284,0.146,0.1478,0.1735,0.1868,0.214,0.2359,0.2534,0.2344,0.1801,0.1206,0.0326,-0.0101,-0.0317,-0.0343,-0.0586,-0.0643,-0.0125,-0.0233,-0.0236,-0.0236,-0.0236,-0.0235,-0.0235,-0.0235,0.1018,0.1201,0.1251,0.1555,0.1656,0.1874,0.1997,0.2181,0.2332,0.2524,0.2544,0.2553,0.2031,0.0535,-0.0491,-0.0706,-0.106,-0.1079,-0.1183,-0.0973,-0.0941,-0.0911,-0.105,-0.1224,-0.1225,-0.1729,-0.1734,-0.1739]}],[{"header":{"parameterUnit":"m.s-1","parameterCategory":2,"la1":30.2991,"la2":30.254,"lo1":-89.0895,"lo2":-89.0444,"dy":0.0017,"dx":0.0017,"nx":28,"ny":28,"refTime":"2025-09-05T09:00:00:Z","depth":"2","parameterNumber":2,"parameterNumberName":"U-component_of_CURRENTS"},"data":[0,0,0,0,0,0,0,0,0,0,0,0,0,0,0,0,0,0,0,0,0,0,0,0,0,0,0,0,0,0,0,0,0,0,0,0,0,0,0,0,0,0,0,0,0,0,0,0,0,0,0,0,0,0,0,0,0,0,0.1815,0.1816,0,0.1887,0.1887,0.1888,0.1906,0.1906,0.1905,0.1905,0.1899,0.1899,0.1899,0,0,0,0,0,0,0,0,0,0,0,0,0,0.176,0.176,0.1815,0.1816,0.1818,0.1887,0.1887,0.1888,0.1906,0.1906,0.1905,0.1905,0.1899,0.1899,0.1899,0,0,0,0,0,0,0,0,0,0,0,0,0,0.18,0.176,0.1815,0.1837,0.184,0.1886,0.1887,0.1888,0.1906,0.1906,0.1905,0.1905,0.1899,0.1899,0.1899,0.1904,0,0,0.1899,0.1899,0,0,0,0,0,0,0,0,0.1797,0.1801,0.1833,0.1836,0.1839,0.189,0.1866,0.1891,0.1906,0.1878,0.1905,0.1905,0.1891,0.1892,0.1902,0.1904,0.1904,0.1899,0.1899,0.1899,0.1899,0,0,0,0,0,0,0,0.1794,0.1799,0.184,0.1834,0.1838,0.1866,0.187,0.1871,0.1881,0.188,0.1882,0.1895,0.1892,0.1902,0.1902,0.1904,0.1899,0.1899,0.1899,0.1899,0.191,0.1911,0,0,0,0,0,0,0.1789,0.1796,0.1838,0.1843,0.1821,0.1867,0.1872,0.1871,0.1883,0.1886,0.1895,0.1896,0.1902,0.1902,0.1902,0.1928,0.1899,0.1899,0.1899,0.191,0.191,0.1911,0,0,0,0,0,0,0.1787,0.1791,0.1835,0.1824,0.1832,0.1868,0.1867,0.1873,0.1891,0.1896,0.1897,0.1908,0.1902,0.1902,0.1905,0.1927,0.1899,0.1899,0.191,0.191,0.1911,0.1968,0,0,0,0,0,0,0.1785,0.179,0.1789,0.1823,0.1833,0.1868,0.1868,0.1874,0.19,0.1901,0.1907,0.1906,0.1902,0.1905,0.1905,0.1927,0.1899,0.1909,0.191,0.1911,0.1966,0.1971,0.1975,0,0,0,0,0,0.1782,0.1782,0.1788,0.1794,0.1829,0.1869,0.1876,0.1899,0.1901,0.1913,0.1912,0.1906,0.1908,0.1905,0.1905,0.1928,0.1909,0.191,0.191,0.1964,0.197,0.1975,0,0,0,0,0,0,0.1752,0.1785,0.1792,0.1799,0.1835,0.1873,0.1888,0.1904,0.1916,0.1915,0.1911,0.191,0.192,0.1911,0.1908,0.193,0.1908,0.1908,0.1948,0.1954,0.1958,0.194,0.1899,0,0,0,0,0,0.1747,0.1756,0.1794,0.1801,0.1819,0.1854,0.1874,0.1894,0.1912,0.1918,0.1919,0.1918,0.1923,0.1928,0.1925,0.1939,0.1967,0.1952,0.1956,0.196,0.1944,0.2008,0.2018,0.1913,0.1913,0.1913,0,0,0.174,0.1757,0.1764,0.1797,0.1823,0.1856,0.1864,0.19,0.1924,0.1913,0.1931,0.1931,0.1928,0.1944,0.1948,0.1941,0.2014,0.1961,0.1964,0.1946,0.201,0.2021,0.203,0.1914,0.1913,0.1913,0,0,0.1737,0.1744,0.1757,0.1788,0.1834,0.1861,0.1873,0.1914,0.1927,0.1949,0.1947,0.1958,0.1963,0.1972,0.1975,0.1999,0.2031,0.2001,0.2017,0.2081,0.209,0.2099,0.2196,0.2213,0.2009,0.2009,0.2009,0,0.1733,0.1748,0.1769,0.1795,0.1829,0.1863,0.1899,0.1918,0.1953,0.1968,0.1957,0.1981,0.1976,0.2009,0.2009,0.2011,0.2061,0.2003,0.2089,0.2098,0.2106,0.2203,0.2221,0.2012,0.2011,0.2011,0.2011,0,0.1744,0.1763,0.1776,0.1819,0.1855,0.1893,0.1933,0.1958,0.1976,0.1996,0.2025,0.2023,0.2044,0.2045,0.2028,0.2081,0.2108,0.2089,0.2083,0.212,0.222,0.2238,0.2016,0.2015,0.2014,0.2013,0,0,0.1732,0.1777,0.1786,0.1819,0.1877,0.1916,0.1951,0.2003,0.2043,0.205,0.2104,0.2089,0.2096,0.2097,0.2098,0.2129,0.2238,0.2127,0.2129,0.2235,0.2417,0.2372,0.2388,0.2244,0.2246,0.2248,0.2484,0,0.1745,0.1795,0.1816,0.1881,0.192,0.1963,0.2004,0.2052,0.2083,0.2137,0.2138,0.2185,0.2119,0.2155,0.2169,0.2228,0.2278,0.2177,0.2352,0.2357,0.2322,0.2402,0.2188,0.2373,0.2501,0.2504,0.2506,0,0.176,0.1796,0.1857,0.1934,0.1957,0.2001,0.2094,0.2133,0.2197,0.2224,0.2252,0.2272,0.2326,0.2266,0.2373,0.2319,0.2359,0.2388,0.2399,0.2336,0.2342,0.2343,0.24,0.2535,0.2533,0.253,0.2529,0,0.1765,0.1831,0.1886,0.1913,0.1999,0.204,0.209,0.2161,0.2221,0.2297,0.2369,0.2403,0.2485,0.2504,0.2548,0.2487,0.2679,0.2621,0.2621,0.2621,0.2457,0.2437,0.2691,0.269,0.269,0.2689,0.2689,0,0.1782,0.1827,0.1896,0.193,0.2026,0.2067,0.2164,0.2216,0.2307,0.2388,0.2422,0.2511,0.2546,0.2649,0.2633,0.2703,0.2767,0.264,0.2674,0.2474,0.2455,0.2582,0.2567,0.2698,0.2696,0.2694,0.2693,0,0.1798,0.1825,0.1906,0.1997,0.2032,0.2109,0.2227,0.228,0.2377,0.2495,0.254,0.2666,0.2778,0.2819,0.2913,0.2859,0.2902,0.2905,0.2684,0.2684,0.2784,0.2769,0.2938,0.2938,0.2939,0.2939,0.2939,0,0.1811,0.1843,0.1969,0.2008,0.2055,0.2155,0.2211,0.2312,0.2368,0.2571,0.2628,0.2806,0.2856,0.3008,0.2958,0.2978,0.2981,0.2806,0.2607,0.2791,0.2808,0.2792,0.2777,0.2452,0.2448,0.2445,0.2442,0,0.1839,0.1886,0.1954,0.2038,0.2103,0.2188,0.2269,0.2333,0.2444,0.2532,0.2669,0.2742,0.2894,0.281,0.2858,0.2816,0.2771,0.2742,0.3035,0.2397,0.2344,0.2357,0.2356,0.2414,0.2417,0.2419,0.2421,0.2422,0.1867,0.1913,0.1977,0.2048,0.212,0.2169,0.2195,0.2248,0.2318,0.2379,0.2555,0.2571,0.2649,0.257,0.2527,0.2505,0.2649,0.252,0.2525,0.2535,0.2411,0.2357,0.2412,0.2415,0.2417,0.2419,0.2421,0,0.1863,0.1885,0.1956,0.2017,0.2042,0.2115,0.2182,0.2134,0.2123,0.2215,0.2258,0.2122,0.2108,0.2193,0.2111,0.2128,0.2055,0.2053,0.1932,0.1964,0.1991,0.1832,0.1684,0.1682,0.1679,0.1677,0,0,0.1843,0.1861,0.1875,0.1889,0.1936,0.1934,0.1945,0.1879,0.1897,0.1801,0.1798,0.1953,0.2114,0.1842,0.184,0.1753,0.1829,0.169,0.2288,0.2176,0.22,0.2282,0.2078,0,0,0,0,0]},{"header":{"parameterUnit":"m.s-1","parameterCategory":2,"la1":30.2991,"la2":30.254,"lo1":-89.0895,"lo2":-89.0444,"dy":0.0017,"dx":0.0017,"nx":28,"ny":28,"refTime":"2025-09-05T09:00:00:Z","depth":"2","parameterNumber":3,"parameterNumberName":"V-component_of_CURRENTS"},"data":[0,0,0,0,0,0,0,0,0,0,0,0,0,0,0,0,0,0,0,0,0,0,0,0,0,0,0,0,0,0,0,0,0,0,0,0,0,0,0,0,0,0,0,0,0,0,0,0,0,0,0,0,0,0,0,0,0,0,-0.0172,-0.0173,0,-0.0254,-0.0255,-0.0255,-0.0302,-0.0303,-0.0303,-0.0303,-0.0367,-0.0368,-0.037,0,0,0,0,0,0,0,0,0,0,0,0,0,-0.0143,-0.0143,-0.0172,-0.0173,-0.0174,-0.0253,-0.0255,-0.0256,-0.0302,-0.0303,-0.0303,-0.0303,-0.0366,-0.0368,-0.037,0,0,0,0,0,0,0,0,0,0,0,0,0,-0.0183,-0.0143,-0.0172,-0.0207,-0.0211,-0.0253,-0.0255,-0.0256,-0.0302,-0.0303,-0.0303,-0.0303,-0.0366,-0.0368,-0.037,-0.038,0,0,-0.0377,-0.0378,0,0,0,0,0,0,0,0,-0.0181,-0.0184,-0.0201,-0.0204,-0.0209,-0.0268,-0.0268,-0.0297,-0.0302,-0.0268,-0.0303,-0.0303,-0.0332,-0.0337,-0.0352,-0.0383,-0.0386,-0.0378,-0.0379,-0.038,-0.0381,0,0,0,0,0,0,0,-0.0178,-0.0182,-0.0204,-0.0202,-0.0207,-0.0248,-0.0253,-0.0274,-0.0297,-0.0271,-0.0274,-0.0283,-0.0334,-0.035,-0.0354,-0.0387,-0.0378,-0.038,-0.0381,-0.0382,-0.0453,-0.0454,0,0,0,0,0,0,-0.0163,-0.0178,-0.0202,-0.0207,-0.0195,-0.0248,-0.0254,-0.0249,-0.0298,-0.0305,-0.0283,-0.0285,-0.0346,-0.0351,-0.0356,-0.0392,-0.038,-0.0382,-0.0384,-0.0453,-0.0453,-0.0454,0,0,0,0,0,0,-0.0161,-0.0163,-0.0199,-0.0196,-0.0203,-0.0247,-0.0242,-0.025,-0.0268,-0.0307,-0.0314,-0.0292,-0.0346,-0.0353,-0.0379,-0.0394,-0.0383,-0.0385,-0.0452,-0.0453,-0.0454,-0.0449,0,0,0,0,0,0,-0.016,-0.0162,-0.0153,-0.0194,-0.0202,-0.0221,-0.0242,-0.0252,-0.0273,-0.0277,-0.0317,-0.0324,-0.0347,-0.0376,-0.0382,-0.0397,-0.0387,-0.0452,-0.0453,-0.0453,-0.0449,-0.045,-0.0451,0,0,0,0,0,-0.0158,-0.0141,-0.0152,-0.0155,-0.0188,-0.0221,-0.0229,-0.0263,-0.0273,-0.028,-0.031,-0.0323,-0.0386,-0.0378,-0.0385,-0.0401,-0.0451,-0.0452,-0.0453,-0.0448,-0.0449,-0.045,0,0,0,0,0,0,-0.0118,-0.0146,-0.0158,-0.0148,-0.0182,-0.0228,-0.0235,-0.026,-0.029,-0.0291,-0.0327,-0.0335,-0.0367,-0.038,-0.0371,-0.0424,-0.0422,-0.0424,-0.0415,-0.0417,-0.0418,-0.0396,-0.0389,0,0,0,0,0,-0.0106,-0.0104,-0.0141,-0.0135,-0.0147,-0.0191,-0.0208,-0.0233,-0.0265,-0.0279,-0.031,-0.0342,-0.0377,-0.0392,-0.042,-0.0445,-0.0455,-0.046,-0.0461,-0.0462,-0.0449,-0.0475,-0.0477,-0.0458,-0.0458,-0.0458,0,0,-0.0091,-0.0104,-0.0104,-0.0127,-0.0153,-0.0172,-0.0201,-0.0224,-0.0245,-0.028,-0.031,-0.0345,-0.0383,-0.0418,-0.0432,-0.0431,-0.0476,-0.0463,-0.0464,-0.045,-0.0477,-0.0479,-0.048,-0.0458,-0.0458,-0.0458,0,0,-0.0063,-0.0069,-0.0063,-0.0086,-0.0121,-0.0153,-0.0158,-0.0205,-0.023,-0.0265,-0.03,-0.0337,-0.0384,-0.0419,-0.0443,-0.0461,-0.048,-0.0476,-0.0464,-0.049,-0.0492,-0.0493,-0.0521,-0.0525,-0.0476,-0.0476,-0.0476,0,-0.0046,-0.0039,-0.0068,-0.0071,-0.0087,-0.0142,-0.0147,-0.0184,-0.0236,-0.0252,-0.0269,-0.0347,-0.0385,-0.0428,-0.0446,-0.0463,-0.048,-0.0458,-0.0491,-0.0492,-0.0494,-0.0522,-0.0526,-0.0476,-0.0476,-0.0476,-0.0476,0,-0.0023,-0.0017,-0.0015,-0.0039,-0.0061,-0.0073,-0.0127,-0.0155,-0.0193,-0.0229,-0.0276,-0.0333,-0.0371,-0.0405,-0.0437,-0.0472,-0.0482,-0.0489,-0.0485,-0.0495,-0.0525,-0.053,-0.0476,-0.0476,-0.0476,-0.0476,0,0,0.0015,0.0004,0.0004,0.0006,-0.0043,-0.0057,-0.0094,-0.0138,-0.0148,-0.0214,-0.0229,-0.0317,-0.034,-0.0367,-0.0414,-0.0452,-0.0497,-0.0476,-0.0478,-0.0499,-0.0558,-0.0547,-0.0551,-0.0511,-0.0511,-0.0512,-0.0579,0,0.0039,0.0054,0.0032,0.0033,0.0035,-0.0019,-0.0042,-0.0089,-0.0135,-0.0162,-0.0235,-0.0263,-0.0328,-0.0342,-0.0395,-0.0462,-0.0507,-0.0478,-0.0549,-0.0551,-0.0535,-0.0555,-0.0511,-0.0565,-0.0583,-0.0584,-0.0585,0,0.0061,0.0072,0.0085,0.0083,0.0079,0.0067,0.0031,0.0006,-0.0053,-0.0085,-0.0135,-0.0181,-0.0252,-0.0296,-0.0419,-0.0398,-0.0476,-0.0536,-0.054,-0.0528,-0.0547,-0.0556,-0.0573,-0.0592,-0.0592,-0.0591,-0.0591,0,0.0098,0.0107,0.0124,0.012,0.0103,0.0099,0.0085,0.0034,0.0031,-0.0023,-0.0022,-0.0118,-0.0137,-0.0258,-0.0389,-0.0403,-0.0515,-0.0545,-0.0613,-0.0613,-0.0587,-0.0584,-0.0629,-0.0629,-0.0629,-0.0629,-0.0628,0,0.0128,0.0144,0.015,0.0159,0.0187,0.0156,0.0172,0.014,0.0119,0.0132,0.0038,0.0038,-0.0125,-0.0209,-0.0356,-0.049,-0.0489,-0.0608,-0.0628,-0.0586,-0.0582,-0.0609,-0.0605,-0.0631,-0.0631,-0.063,-0.063,0,0.0157,0.016,0.0187,0.0195,0.0205,0.0224,0.0242,0.0252,0.023,0.0246,0.0241,0.0167,0.0059,-0.0113,-0.0291,-0.0415,-0.0566,-0.0615,-0.0556,-0.0567,-0.0661,-0.0657,-0.0702,-0.0702,-0.0702,-0.0703,-0.0703,0,0.0166,0.0183,0.0223,0.0246,0.0253,0.0284,0.0305,0.0301,0.032,0.0326,0.0344,0.0274,0.0224,-0.0026,-0.0259,-0.0498,-0.0546,-0.0605,-0.0629,-0.0653,-0.0668,-0.0663,-0.0659,-0.0605,-0.0604,-0.0603,-0.0603,0,0.0174,0.0192,0.0217,0.0279,0.0314,0.0365,0.0403,0.0444,0.0448,0.0484,0.052,0.0497,0.0278,0.0077,-0.0228,-0.0396,-0.0567,-0.0599,-0.0636,-0.0584,-0.0564,-0.0577,-0.0576,-0.0597,-0.0598,-0.0598,-0.0599,-0.0599,0.017,0.0196,0.0234,0.0297,0.0354,0.0432,0.0493,0.0548,0.0623,0.0688,0.0653,0.0647,0.0401,0.004,-0.0227,-0.0502,-0.0524,-0.0621,-0.0622,-0.0624,-0.0591,-0.0572,-0.0601,-0.0602,-0.0602,-0.0603,-0.0603,0,0.0148,0.0188,0.0245,0.0321,0.0399,0.044,0.0546,0.0618,0.0737,0.0794,0.0833,0.0637,0.0414,0.0132,-0.0259,-0.051,-0.054,-0.0585,-0.0564,-0.0568,-0.0572,-0.0536,-0.0532,-0.0533,-0.0533,-0.0533,0,0,0.0124,0.017,0.0216,0.0335,0.0415,0.0545,0.063,0.0756,0.0838,0.0905,0.0922,0.0861,0.0524,0.026,-0.0085,-0.0296,-0.0375,-0.0343,-0.0376,-0.0315,-0.0315,-0.0572,-0.0519,0,0,0,0,0]}],[{"header":{"parameterUnit":"m.s-1","parameterCategory":2,"la1":30.2991,"la2":30.254,"lo1":-89.0895,"lo2":-89.0444,"dy":0.0017,"dx":0.0017,"nx":28,"ny":28,"refTime":"2025-09-05T09:00:00:Z","depth":"4","parameterNumber":2,"parameterNumberName":"U-component_of_CURRENTS"},"data":[0,0,0,0,0,0,0,0,0,0,0,0,0,0,0,0,0,0,0,0,0,0,0,0,0,0,0,0,0,0,0,0,0,0,0,0,0,0,0,0,0,0,0,0,0,0,0,0,0,0,0,0,0,0,0,0,0,0,0.1019,0.102,0,0.1067,0.1067,0.1067,0.1107,0.1108,0.1108,0.1109,0.1158,0.1159,0.116,0,0,0,0,0,0,0,0,0,0,0,0,0,0.0941,0.0942,0.1019,0.102,0.1021,0.1067,0.1067,0.1068,0.1107,0.1108,0.1109,0.1109,0.1158,0.1159,0.116,0,0,0,0,0,0,0,0,0,0,0,0,0,0.0979,0.0942,0.1019,0.1047,0.105,0.1067,0.1067,0.1068,0.1107,0.1108,0.1109,0.111,0.1158,0.1159,0.116,0.115,0,0,0.1164,0.1164,0,0,0,0,0,0,0,0,0.0977,0.0981,0.1042,0.1045,0.1049,0.1083,0.1058,0.1096,0.1107,0.1084,0.1109,0.111,0.1134,0.1137,0.1142,0.1152,0.1154,0.1164,0.1164,0.1165,0.1165,0,0,0,0,0,0,0,0.0974,0.0979,0.1036,0.1043,0.1047,0.105,0.1056,0.1065,0.1102,0.1086,0.1089,0.1097,0.1136,0.114,0.1143,0.1155,0.1164,0.1165,0.1165,0.1166,0.1252,0.1254,0,0,0,0,0,0,0.0972,0.0977,0.1035,0.1038,0.1016,0.1051,0.1058,0.107,0.1102,0.1108,0.1096,0.1099,0.1138,0.1142,0.1145,0.1212,0.1165,0.1166,0.1167,0.1251,0.1253,0.1254,0,0,0,0,0,0,0.097,0.0977,0.1033,0.1009,0.1017,0.1052,0.1065,0.1071,0.1101,0.111,0.1116,0.1124,0.1139,0.1143,0.118,0.1211,0.1167,0.1168,0.1249,0.1251,0.1253,0.1295,0,0,0,0,0,0,0.0968,0.0976,0.099,0.101,0.1019,0.1058,0.1064,0.1071,0.1104,0.1108,0.1135,0.1139,0.114,0.1179,0.1181,0.1212,0.1169,0.1247,0.125,0.1253,0.1292,0.1299,0.1305,0,0,0,0,0,0.0965,0.098,0.0991,0.0998,0.1036,0.1058,0.1064,0.1089,0.1105,0.112,0.1145,0.114,0.12,0.118,0.1183,0.1215,0.1245,0.1249,0.1252,0.1289,0.1297,0.1304,0,0,0,0,0,0,0.0955,0.0986,0.0999,0.1024,0.1047,0.1066,0.1087,0.1102,0.1133,0.1146,0.1154,0.116,0.1204,0.1205,0.1184,0.1251,0.1224,0.1228,0.1251,0.1259,0.1265,0.1268,0.1169,0,0,0,0,0,0.0959,0.0984,0.1006,0.1031,0.1044,0.1069,0.1086,0.1104,0.1129,0.1145,0.1166,0.1192,0.1216,0.1235,0.1251,0.1284,0.1284,0.1309,0.1315,0.1321,0.1327,0.1368,0.1378,0.1266,0.1266,0.1266,0,0,0.0963,0.0985,0.1,0.1032,0.1054,0.1072,0.1082,0.1115,0.1141,0.1144,0.1194,0.1213,0.123,0.127,0.129,0.1278,0.1349,0.1325,0.133,0.1333,0.1373,0.1384,0.1393,0.1269,0.1268,0.1268,0,0,0.0976,0.1004,0.1024,0.1043,0.1079,0.1092,0.1107,0.1141,0.117,0.1212,0.1226,0.127,0.1301,0.1326,0.134,0.1393,0.138,0.1399,0.1436,0.1476,0.1486,0.1494,0.1488,0.1495,0.1405,0.1405,0.1405,0,0.098,0.1007,0.1033,0.1053,0.107,0.1104,0.1122,0.1154,0.1199,0.1226,0.1237,0.131,0.1331,0.138,0.1407,0.1408,0.141,0.1403,0.1484,0.1493,0.15,0.1492,0.15,0.1407,0.1407,0.1407,0.1407,0,0.0999,0.1025,0.104,0.1075,0.1096,0.1121,0.1158,0.1202,0.1243,0.1267,0.1336,0.1372,0.1417,0.1435,0.144,0.1507,0.1482,0.1484,0.1461,0.1514,0.1502,0.1509,0.1411,0.141,0.1409,0.1409,0,0,0.0991,0.1042,0.1048,0.1069,0.111,0.113,0.1184,0.1233,0.1282,0.1333,0.1392,0.1451,0.1476,0.1495,0.1514,0.1556,0.1614,0.1549,0.155,0.1536,0.1672,0.1606,0.1607,0.1631,0.1633,0.1635,0.1633,0,0.0998,0.103,0.1056,0.1095,0.1111,0.1161,0.1204,0.1257,0.1316,0.1384,0.1436,0.1502,0.1496,0.1542,0.1577,0.1617,0.1639,0.1613,0.1629,0.1628,0.1559,0.1616,0.1642,0.1638,0.164,0.1641,0.1642,0,0.0998,0.1021,0.1052,0.1107,0.1122,0.1156,0.1241,0.1289,0.1381,0.1428,0.1495,0.1542,0.1619,0.1615,0.1682,0.1666,0.1671,0.1687,0.1688,0.1619,0.1578,0.1581,0.1654,0.1653,0.1652,0.1652,0.1651,0,0.0965,0.1019,0.1046,0.1062,0.1127,0.1172,0.122,0.1306,0.1359,0.1476,0.1531,0.1604,0.1667,0.1699,0.1745,0.1724,0.1806,0.1777,0.1706,0.1699,0.1736,0.1728,0.1814,0.1814,0.1814,0.1814,0.1814,0,0.0945,0.0971,0.1043,0.1056,0.1103,0.1163,0.1235,0.13,0.1401,0.1462,0.1556,0.1618,0.17,0.1758,0.1766,0.1763,0.1821,0.172,0.1709,0.175,0.1744,0.174,0.1731,0.1814,0.1814,0.1814,0.1814,0,0.0893,0.0943,0.0977,0.1056,0.1086,0.1123,0.1228,0.1286,0.1391,0.1482,0.1531,0.1648,0.1729,0.1785,0.1848,0.1789,0.1804,0.1781,0.1813,0.1802,0.1649,0.1643,0.1683,0.1681,0.1679,0.1678,0.1676,0,0.0868,0.0878,0.0956,0.0985,0.1026,0.1096,0.1146,0.1261,0.1318,0.1487,0.1518,0.1655,0.172,0.1735,0.18,0.1806,0.1787,0.1755,0.1706,0.1658,0.1643,0.1639,0.1636,0.1674,0.1673,0.1673,0.1672,0,0.0804,0.0841,0.0867,0.0916,0.0977,0.1022,0.1104,0.114,0.1282,0.14,0.1488,0.1558,0.1637,0.1685,0.1716,0.1714,0.1763,0.1736,0.1738,0.1692,0.1648,0.1633,0.1632,0.1666,0.1667,0.1668,0.1668,0,0.0758,0.0751,0.0792,0.0835,0.0896,0.0922,0.0983,0.1063,0.1135,0.1333,0.1361,0.1506,0.1622,0.1638,0.1668,0.1675,0.1635,0.1559,0.157,0.1577,0.155,0.1479,0.1446,0,0,0,0,0,0.0699,0.0683,0.0709,0.074,0.08,0.0838,0.0939,0.101,0.1164,0.1198,0.1277,0.136,0.1441,0.1507,0.1492,0.1603,0.1624,0.1576,0.1537,0.1634,0.1641,0.1623,0,0,0,0,0,0,0.0655,0.0666,0.067,0.0657,0.0671,0.0719,0.0785,0.0895,0.0916,0.1087,0.1136,0.127,0.1359,0.1435,0.1462,0.1483,0.1429,0.1668,0.1665,0.163,0.1636,0.1642,0.1626,0,0,0,0,0]},{"header":{"parameterUnit":"m.s-1","parameterCategory":2,"la1":30.2991,"la2":30.254,"lo1":-89.0895,"lo2":-89.0444,"dy":0.0017,"dx":0.0017,"nx":28,"ny":28,"refTime":"2025-09-05T09:00:00:Z","depth":"4","parameterNumber":3,"parameterNumberName":"V-component_of_CURRENTS"},"data":[0,0,0,0,0,0,0,0,0,0,0,0,0,0,0,0,0,0,0,0,0,0,0,0,0,0,0,0,0,0,0,0,0,0,0,0,0,0,0,0,0,0,0,0,0,0,0,0,0,0,0,0,0,0,0,0,0,0,0.0056,0.0055,0,0.0024,0.0023,0.0023,0.0002,0.0002,0.0001,0.0001,-0.0047,-0.0048,-0.0049,0,0,0,0,0,0,0,0,0,0,0,0,0,0.0095,0.0095,0.0056,0.0055,0.0055,0.0024,0.0023,0.0023,0.0002,0.0002,0.0001,0.0001,-0.0047,-0.0048,-0.0049,0,0,0,0,0,0,0,0,0,0,0,0,0,0.0072,0.0094,0.0056,0.004,0.0039,0.0024,0.0023,0.0023,0.0002,0.0002,0.0001,0.0001,-0.0046,-0.0048,-0.0049,-0.0055,0,0,-0.0055,-0.0055,0,0,0,0,0,0,0,0,0.0074,0.0071,0.0043,0.0041,0.0039,0.0016,0.0019,-0.0004,0.0002,0.0016,0.0001,0.0001,-0.0027,-0.0031,-0.0035,-0.0057,-0.0059,-0.0055,-0.0056,-0.0056,-0.0057,0,0,0,0,0,0,0,0.0075,0.0072,0.0043,0.0043,0.004,0.0034,0.003,0.0015,-0.0004,0.0015,0.0013,0.0009,-0.0029,-0.0034,-0.0037,-0.006,-0.0055,-0.0056,-0.0057,-0.0058,-0.0078,-0.0078,0,0,0,0,0,0,0.0079,0.0074,0.0044,0.0042,0.0056,0.0033,0.0029,0.0024,-0.0003,-0.0008,0.0009,0.0008,-0.0031,-0.0035,-0.0038,-0.0024,-0.0056,-0.0058,-0.0059,-0.0079,-0.0078,-0.0078,0,0,0,0,0,0,0.008,0.0077,0.0046,0.0057,0.0053,0.0033,0.0027,0.0024,0.0017,-0.0007,-0.0012,0.0006,-0.0031,-0.0036,-0.0047,-0.0027,-0.0059,-0.006,-0.0079,-0.0079,-0.0078,-0.0008,0,0,0,0,0,0,0.0081,0.0077,0.0075,0.0057,0.0052,0.0043,0.0027,0.0023,0.0015,0.0013,-0.0012,-0.0017,-0.0032,-0.0045,-0.0049,-0.0029,-0.0062,-0.008,-0.0079,-0.0078,-0.0011,-0.0005,-0.0,0,0,0,0,0,0.0083,0.0081,0.0075,0.0072,0.005,0.0043,0.004,0.0025,0.0015,0.0017,0.0,-0.0016,-0.0042,-0.0046,-0.0051,-0.0031,-0.008,-0.0079,-0.0078,-0.0014,-0.0006,-0.0,0,0,0,0,0,0,0.0092,0.0078,0.0072,0.0064,0.0058,0.004,0.0037,0.0027,0.0015,0.0011,-0.0013,-0.0018,-0.0018,-0.0039,-0.0042,-0.0036,-0.0063,-0.0063,-0.0012,-0.0006,-0.0,0.0013,-0.0063,0,0,0,0,0,0.0095,0.0093,0.0079,0.0074,0.007,0.0054,0.0048,0.004,0.0026,0.0021,0.0004,-0.0013,-0.0017,-0.0023,-0.0035,-0.0035,-0.0076,-0.0027,-0.0021,-0.0016,-0.001,-0.0046,-0.0043,-0.0074,-0.0074,-0.0074,0,0,0.0095,0.0089,0.0085,0.0076,0.0067,0.0076,0.005,0.0045,0.0058,0.0017,0.0024,0.0005,-0.0014,-0.0008,-0.001,-0.0023,-0.0034,-0.0015,-0.001,-0.0007,-0.0045,-0.0042,-0.0039,-0.0074,-0.0074,-0.0074,0,0,0.0103,0.0091,0.0096,0.0098,0.009,0.0087,0.0087,0.0073,0.0072,0.0073,0.0054,0.0048,0.0029,0.0029,0.0026,0.0051,-0.0004,0.0043,0.0083,0.0048,0.005,0.0052,-0.0017,-0.0022,0.0046,0.0046,0.0046,0,0.0105,0.0112,0.0096,0.0108,0.0117,0.0096,0.0114,0.0113,0.0099,0.0102,0.0083,0.0067,0.0053,0.007,0.0083,0.0067,0.0019,0.0063,0.0055,0.0056,0.0057,-0.0014,-0.002,0.005,0.0049,0.0049,0.0048,0,0.0121,0.0132,0.0135,0.015,0.0159,0.0167,0.0171,0.0173,0.0165,0.0161,0.0164,0.0141,0.0129,0.013,0.0116,0.0122,0.0076,0.0067,0.0041,0.0064,-0.0012,-0.002,0.0055,0.0053,0.0052,0.0051,0,0,0.0113,0.0142,0.0145,0.0165,0.0184,0.019,0.022,0.0236,0.024,0.0233,0.0235,0.0244,0.0215,0.0209,0.0187,0.0167,0.0128,0.0122,0.0118,0.0058,0.0016,-0.0002,-0.0014,0.0113,0.0112,0.0112,-0.0047,0,0.0132,0.0169,0.0182,0.0224,0.0245,0.0252,0.0279,0.0292,0.0284,0.0276,0.0266,0.0253,0.025,0.023,0.0218,0.0141,0.0113,0.017,-0.0001,-0.0006,-0.0021,-0.002,0.0111,-0.0053,-0.0055,-0.0056,-0.0057,0,0.0146,0.0173,0.0218,0.0264,0.0273,0.0296,0.0324,0.0343,0.0339,0.0328,0.032,0.0288,0.0265,0.0249,0.0153,0.0182,0.0112,0.0057,0.0049,0.0007,-0.0037,-0.0077,-0.0072,-0.0071,-0.007,-0.0069,-0.0068,0,0.0149,0.0199,0.0238,0.0255,0.0301,0.0322,0.0343,0.0356,0.0367,0.0346,0.0326,0.0298,0.0252,0.0188,0.008,0.0105,-0.0055,-0.004,-0.0119,-0.0124,-0.0092,-0.0092,-0.01,-0.01,-0.0099,-0.0099,-0.0099,0,0.0167,0.0195,0.024,0.0261,0.0302,0.0331,0.0359,0.0369,0.0372,0.0377,0.0345,0.032,0.0233,0.0135,0.006,-0.0071,-0.0077,-0.0117,-0.0157,-0.0063,-0.0058,-0.01,-0.0097,-0.0105,-0.0104,-0.0103,-0.0101,0,0.0161,0.0192,0.0233,0.0285,0.0304,0.0328,0.0374,0.0386,0.0384,0.038,0.037,0.0305,0.0184,0.0076,-0.007,-0.0116,-0.0229,-0.0273,-0.0204,-0.0238,-0.0271,-0.0264,-0.0367,-0.0369,-0.037,-0.0371,-0.0372,0,0.0159,0.018,0.024,0.0262,0.0285,0.0327,0.0357,0.0388,0.0401,0.0375,0.0367,0.0252,0.0199,-0.0029,-0.0135,-0.0308,-0.0307,-0.0383,-0.0268,-0.0266,-0.0295,-0.0285,-0.0276,-0.0375,-0.0375,-0.0375,-0.0376,0,0.0147,0.0166,0.0199,0.025,0.0286,0.0336,0.0378,0.0391,0.0418,0.0408,0.0364,0.0266,0.0116,-0.0026,-0.0187,-0.0291,-0.0337,-0.0398,-0.0393,-0.0286,-0.0277,-0.0302,-0.0291,-0.0381,-0.038,-0.038,-0.0379,0,0.0126,0.0143,0.0186,0.0237,0.0283,0.0337,0.0365,0.039,0.0411,0.04,0.0375,0.0244,0.0166,-0.0022,-0.016,-0.0282,-0.0272,-0.0277,-0.0278,-0.0274,-0.0181,-0.0151,-0.0254,0,0,0,0,0,0.0105,0.0133,0.0171,0.0236,0.0287,0.0325,0.0378,0.0403,0.0426,0.0406,0.0404,0.0282,0.0095,0.0003,-0.0117,-0.0184,-0.0309,-0.0329,-0.0318,-0.0409,-0.0404,-0.0308,0,0,0,0,0,0,0.0086,0.0121,0.0163,0.0232,0.0278,0.0345,0.0383,0.0403,0.04,0.0399,0.0298,0.0262,0.0069,0.0164,-0.0117,-0.0157,-0.0162,-0.0419,-0.0421,-0.0413,-0.0407,-0.0403,-0.0302,0,0,0,0,0]}]]